Location: Mount Kobau Star Party
(49.1167°N, 119.7333°W)
Time: 12:32:50
(UTC-07:00)

ARIANE 6 FM1 Upper Stage - Pass Details

Date: 11 April 2026
Orbit: 526 x 601 km, 62.0° (Epoch: 18 May)

Event Time Altitude Azimuth Distance (km) Brightness Sun altitude
Rises 05:13:28 0° 305° (NW) 2,664 5.8 -10.3°
Reaches altitude 10° 05:16:06 10° 288° (WNW) 1,769 4.8 -9.9°
Maximum altitude 05:19:00 20° 241° (WSW) 1,263 3.8 -9.5°
Drops below altitude 10° 05:21:54 10° 193° (SSW) 1,767 4.9 -9.1°
Sets 05:24:31 0° 176° (S) 2,659 5.9 -8.7°
